#timestamp,LO_Frequency,Hit,StdDev 
1509156015.6,286047001.0,N
1509156035.5,286046998.9,N
1509156055.3,286047001.2,N
1509156075.1,286046993.6,N
1509156095.9,286046990.5,N
1509156115.7,286046989.2,N
1509156135.5,286046988.0,N
1509156155.4,286046989.7,N
1509156175.2,286046991.6,N
1509156195.0,286046990.8,N
1509156195.9,286046990.8,N
1509156215.8,286046990.4,N
1509156235.6,286046992.6,N
1509156255.4,286046990.5,N
1509156275.3,286046988.6,N
1509156295.1,286046989.1,N
1509156296.0,286046989.1,N
1509156315.8,286046989.2,N
1509156335.7,286046984.2,N
1509156355.5,286046982.3,N
1509156375.3,286046984.1,N
1509156395.2,286046986.3,N
1509156415.9,286046984.5,N
1509156435.7,286046983.9,N
1509156455.6,286046985.4,N
1509156475.4,286046985.9,N
1509156495.2,286046987.3,N
1509156515.1,286046989.1,N
1509156516.0,286046989.1,N
1509156535.8,286046989.6,N
1509156555.6,286046987.6,N
1509156575.5,286046984.0,Y
1509156595.3,286046992.4,P
1509156615.2,286046991.3,P
1509156635.9,286046987.5,P
1509156655.7,286046986.1,Y
1509156675.6,286046995.6,P
1509156695.4,286046994.8,N
1509156715.2,286046991.8,P
1509156735.1,286046989.1,Y
1509156736.0,286046989.1,P
1509156755.8,286046994.6,N
1509156775.7,286046994.0,N
1509156795.5,286046993.5,Y
1509156815.3,286046998.7,P
1509156835.2,286046998.8,N
1509156855.9,286046997.0,N
1509156875.7,286046996.9,N
1509156895.6,286046996.7,N
1509156915.4,286046998.9,N
1509156935.2,286047000.2,N
1509156955.1,286047000.0,N
1509156956.0,286047000.0,N
1509156975.8,286047002.4,N
1509156995.6,286046999.6,N
1509157015.5,286046999.1,N
1509157035.3,286047002.8,N
1509157055.1,286047004.4,N
1509157075.9,286047005.3,N
1509157095.7,286047004.7,N
1509157115.5,286047010.5,Y
1509157135.4,286047015.4,P
1509157155.2,286047015.5,N
1509157175.0,286047015.4,N
1509157175.9,286047015.4,N
1509157195.8,286047015.4,N
1509157215.6,286047012.6,N
1509157235.5,286047010.9,N
1509157255.3,286047014.9,N
1509157275.1,286047019.6,Y
1509157295.9,286047006.8,P
1509157315.7,286047007.6,N
1509157335.5,286047008.6,P
1509157355.4,286047009.0,Y
1509157375.2,286046998.1,P
1509157395.0,286047000.2,N
1509157395.9,286047000.2,N
1509157415.8,286046998.4,N
1509157435.6,286047001.1,N
1509157455.4,286047001.2,N
1509157475.3,286046996.5,N
1509157495.1,286046997.0,N
1509157515.8,286046995.1,N
1509157535.7,286046993.5,N
1509157555.5,286046997.5,N
1509157575.3,286046997.6,N
1509157595.2,286046994.6,N
1509157615.0,286046994.4,N
1509157615.9,286046994.4,N
1509157635.8,286046993.1,N
1509157655.6,286046990.3,N
1509157675.4,286046993.2,N
1509157695.3,286046990.9,N
1509157715.1,286046990.9,N
1509157716.0,286046990.9,N
1509157735.8,286046988.5,N
1509157755.7,286046990.6,N
1509157775.5,286046994.1,N
1509157795.3,286046993.4,N
1509157815.2,286046996.1,N
1509157835.9,286046993.7,N
1509157855.7,286046994.8,N
1509157875.6,286046995.0,N
1509157895.4,286046997.6,N
1509157915.2,286046998.9,N
1509157935.1,286046998.0,N
1509157936.0,286046998.0,N
1509157955.8,286046997.5,N
1509157975.6,286046994.8,N
1509157995.5,286046993.8,N
1509158015.3,286046994.4,N
1509158035.2,286046991.3,Y
1509158055.9,286046994.4,P
1509158075.7,286046992.6,P
1509158095.6,286046991.4,P
1509158115.4,286046993.0,Y
1509158135.2,286046998.9,P
1509158155.1,286046997.3,N
1509158156.0,286046997.3,N
1509158175.8,286046997.4,N
1509158195.6,286046998.3,N
1509158215.5,286047002.6,N
1509158235.3,286046999.7,N
1509158255.1,286046996.8,N
1509158275.9,286046996.0,N
1509158295.7,286046997.7,N
1509158315.5,286046997.5,N
1509158335.4,286046997.4,N
1509158355.2,286046993.6,Y
1509158375.1,286046998.0,P
1509158376.0,286046998.0,P
1509158395.8,286046997.5,P
1509158415.6,286046999.8,N
1509158435.5,286046999.3,N
1509158455.3,286046997.0,Y
1509158475.1,286047000.6,P
1509158495.9,286046999.7,N
1509158515.7,286046997.2,P
1509158535.6,286046993.6,Y
1509158555.4,286046999.4,P
1509158575.2,286046998.1,P
1509158595.1,286046999.6,N
1509158596.0,286046999.6,N
1509158615.8,286046998.1,Y
1509158635.6,286047000.6,P
1509158655.5,286046999.1,N
1509158675.3,286046996.4,P
1509158695.1,286046993.6,Y
1509158715.9,286046997.1,P
1509158735.7,286046999.3,N
1509158755.6,286046998.8,N
1509158775.4,286046999.1,N
1509158795.2,286047001.9,N
1509158815.1,286047001.9,N
1509158816.0,286047001.9,N
1509158835.8,286047004.0,N
1509158855.6,286047002.4,N
1509158875.5,286047002.5,N
1509158895.3,286047006.0,N
1509158915.1,286047008.5,Y
1509158935.9,286047008.1,P
1509158955.7,286047012.7,P
1509158975.5,286047017.0,P
1509158995.4,286047022.0,Y
1509159015.2,286047015.2,P
1509159035.1,286047015.4,P
1509159036.0,286047015.4,P
1509159055.8,286047015.6,Y
1509159075.6,286047004.2,P
1509159095.5,286046998.1,N
1509159115.3,286046999.3,N
1509159135.1,286046998.4,N
1509159155.9,286047001.2,N
1509159175.7,286047003.8,N
1509159195.5,286047001.1,N
1509159215.4,286047000.0,N
1509159235.2,286047000.4,N
1509159255.0,286047001.0,N
1509159255.9,286047001.0,N
1509159275.8,286047004.3,N
1509159295.6,286047003.0,N
1509159315.4,286047007.4,N
1509159335.3,286047009.6,N
1509159355.1,286047010.0,N
1509159375.8,286047010.1,N
1509159395.7,286047008.1,N
1509159415.5,286047008.5,N
1509159435.3,286047002.2,N
1509159455.2,286047003.1,N
1509159475.0,286047004.7,N
1509159475.9,286047004.7,N
1509159495.7,286047007.6,N
1509159515.6,286047004.5,N
1509159535.4,286047004.9,N
1509159555.2,286047007.1,N
1509159575.1,286047002.9,N
1509159576.0,286047002.9,N
1509159595.8,286047002.9,N
